This demonstration page uses our WeatherBlox Daily Observations layout. Learn more.

Left ArrowRight Arrow

39.95238, -75.16362

Hourly Observations for August 30, 2022

Temp ( °F °C ) Dew Point ( °F °C ) Humidity (%) Winds ( mph kmh ) Pressure ( in mb ) Visibility ( mi km ) Precip ( " mm )
12:08 am 00:08 Mostly Cloudy 78 25.6 73 22.8 85 85 SSW 6 9 30.02 1017 10 16 0.00 0.00
12:29 am 00:29 Cloudy 78 25.6 73 22.8 85 85 SSW 6 9 30.03 1017 10 16 0.00 0.00
12:54 am 00:54 Cloudy 78 25.6 74 23.3 87 87 S 6 9 30.01 1016 10 16 0.00 0.00
1:30 am 01:30 Cloudy 78 25.6 74 23.3 87 87 S 7 11 30.01 1016 10 16 0.00 0.00
1:54 am 01:54 Cloudy 78 25.6 74 23.3 87 87 SSW 7 11 30.00 1016 10 16 0.00 0.00
2:54 am 02:54 Cloudy 78 25.6 74 23.3 87 87 SSW 7 11 29.99 1016 10 16 0.00 0.00
3:05 am 03:05 Mostly Cloudy 78 25.6 74 23.3 87 87 SSW 8 13 29.99 1016 10 16 0.00 0.00
3:31 am 03:31 Mostly Cloudy 78 25.6 74 23.3 87 87 SSW 10 17 29.99 1016 10 16 0.00 0.00
3:54 am 03:54 Mostly Cloudy 78 25.6 74 23.3 87 87 SSW 8 13 29.98 1015 10 16 0.00 0.00
4:31 am 04:31 Mostly Cloudy 78 25.6 74 23.3 87 87 SSW 8 13 29.98 1015 10 16 0.00 0.00
4:54 am 04:54 Cloudy 78 25.6 74 23.3 87 87 SSW 8 13 29.97 1015 10 16 0.00 0.00
5:37 am 05:37 Cloudy 78 25.6 74 23.3 87 87 SSW 10 17 29.98 1015 10 16 0.00 0.00
5:54 am 05:54 Cloudy 78 25.6 74 23.3 87 87 SW 10 17 29.97 1015 10 16 0.00 0.00
6:40 am 06:40 Cloudy 78 25.6 74 23.3 87 87 SSW 7 11 29.97 1015 10 16 0.00 0.00
6:54 am 06:54 Cloudy 78 25.6 74 23.3 87 87 S 8 13 29.96 1015 10 16 0.00 0.00
7:54 am 07:54 Mostly Cloudy 78 25.6 74 23.3 87 87 SSW 7 11 29.95 1014 10 16 0.00 0.00
8:54 am 08:54 Cloudy 80 26.7 73 22.8 79 79 SW 9 15 29.95 1014 10 16 0.00 0.00
9:34 am 09:34 Cloudy 81 27.2 73 22.8 77 77 S 8 13 29.94 1014 10 16 0.00 0.00
9:54 am 09:54 Mostly Cloudy 82 27.8 73 22.8 74 74 S 12 19 29.93 1014 10 16 0.00 0.00
10:41 am 10:41 Partly Cloudy 84 28.9 73 22.8 70 70 S 10 17 29.93 1013 10 16 0.00 0.00
10:54 am 10:54 Partly Cloudy 85 29.4 73 22.8 68 68 SSW 10 17 29.93 1013 10 16 0.00 0.00
11:54 am 11:54 Partly Cloudy 88 31.1 72 22.2 59 59 S 10 17 29.90 1013 10 16 0.00 0.00
12:54 pm 12:54 Partly Cloudy 90 32.2 70 21.1 52 52 SW 12 19 29.86 1011 10 16 0.00 0.00
1:54 pm 13:54 Partly Cloudy 91 32.8 68 20 47 47 S 13 20 29.83 1010 10 16 0.00 0.00
3:54 pm 15:54 Partly Cloudy 94 34.4 69 20.6 45 45 SSW 16 26 29.78 1009 10 16 0.00 0.00
4:54 pm 16:54 Partly Cloudy 93 33.9 68 20 44 44 SSW 16 26 29.77 1008 10 16 0.00 0.00
5:54 pm 17:54 Mostly Cloudy 89 31.7 71 21.7 56 56 S 15 24 29.76 1008 10 16 0.00 0.00
6:54 pm 18:54 Mostly Cloudy 87 30.6 71 21.7 59 59 SSE 10 17 29.75 1007 10 16 0.00 0.00
7:02 pm 19:02 Mostly Cloudy with Nearby Thunderstorms 86 30 72 22.2 63 63 SSE 9 15 29.74 1007 10 16 0.00 0.00
7:15 pm 19:15 Mostly Cloudy with Thunderstorms 85 29.4 71 21.7 63 63 W 20 31 29.77 1008 1 1 0.01 0.13
7:21 pm 19:21 Mostly Cloudy with Thunderstorms 79 26.1 73 22.8 82 82 WSW 15 24 29.77 1008 2 3 0.07 1.78
7:33 pm 19:33 Mostly Cloudy with Heavy Rain 78 25.6 74 23.3 87 87 SW 12 19 29.77 1008 2 2 0.40 10.16
7:35 pm 19:35 Mostly Cloudy with Heavy Rain 78 25.6 74 23.3 87 87 WSW 12 19 29.77 1008 7 11 0.41 10.41
7:54 pm 19:54 Cloudy with Light Rain 79 26.1 74 23.3 85 85 SSW 7 11 29.78 1008 10 16 0.42 10.67
8:54 pm 20:54 Cloudy 79 26.1 71 21.7 77 77 WNW 6 9 29.79 1009 10 16 0.01 0.13
9:54 pm 21:54 Cloudy 78 25.6 71 21.7 79 79 W 7 11 29.80 1009 10 16 0.00 0.00
10:54 pm 22:54 Cloudy 78 25.6 70 21.1 76 76 W 10 17 29.80 1009 10 16 0.00 0.00
11:54 pm 23:54 Cloudy 77 25 72 22.2 84 84 WNW 9 15 29.79 1009 10 16 0.00 0.00

Powered by AerisWeather